| time (UTC) | temp C | wind direction | speed KPH | gust KPH | rain 1hr cm | rain 24hr cm | rain mn cm | humidity % | barometer mb |
| 20260507174007 | 17 | 70 | 8.0 | 14.5 | 0.00 | 0.23 | 0.00 | 62 | 1010.4 |
| 20260507173506 | 17 | 68 | 8.0 | 12.9 | 0.00 | 0.23 | 0.00 | 62 | 1010.3 |
| 20260507173007 | 17 | 77 | 6.4 | 14.5 | 0.00 | 0.23 | 0.00 | 62 | 1010.3 |
| 20260507172508 | 17 | 97 | 4.8 | 9.7 | 0.00 | 0.23 | 0.00 | 62 | 1010.2 |
| 20260507171505 | 17 | 80 | 9.7 | 16.1 | 0.00 | 0.23 | 0.00 | 61 | 1010.5 |
| 20260507170506 | 17 | 77 | 9.7 | 16.1 | 0.00 | 0.23 | 0.00 | 60 | 1010.4 |
| 20260507170006 | 17 | 74 | 9.7 | 19.3 | 0.00 | 0.23 | 0.00 | 60 | 1010.5 |
| 20260507165007 | 18 | 62 | 8.0 | 16.1 | 0.00 | 0.23 | 0.00 | 57 | 1010.3 |
| 20260507164506 | 17 | 65 | 9.7 | 14.5 | 0.00 | 0.23 | 0.00 | 60 | 1010.4 |
| 20260507163506 | 18 | 83 | 8.0 | 20.9 | 0.00 | 0.23 | 0.00 | 58 | 1010.5 |
| 20260507162505 | 18 | 65 | 4.8 | 16.1 | 0.00 | 0.23 | 0.00 | 59 | 1010.4 |
| 20260507162007 | 18 | 64 | 8.0 | 16.1 | 0.00 | 0.23 | 0.00 | 58 | 1010.5 |
| 20260507161006 | 17 | 69 | 9.7 | 20.9 | 0.00 | 0.23 | 0.00 | 58 | 1010.6 |
| 20260507160506 | 17 | 73 | 8.0 | 19.3 | 0.00 | 0.23 | 0.00 | 58 | 1010.6 |
| 20260507160006 | 17 | 72 | 8.0 | 19.3 | 0.00 | 0.23 | 0.00 | 58 | 1010.5 |
| 20260507155506 | 17 | 65 | 8.0 | 19.3 | 0.00 | 0.23 | 0.00 | 59 | 1010.6 |
| 20260507155006 | 17 | 57 | 9.7 | 19.3 | 0.00 | 0.23 | 0.00 | 59 | 1010.7 |
| 20260507154505 | 17 | 101 | 11.3 | 22.5 | 0.00 | 0.23 | 0.00 | 59 | 1010.6 |
| 20260507154008 | 18 | 92 | 9.7 | 19.3 | 0.00 | 0.23 | 0.00 | 60 | 1010.5 |
| 20260507153506 | 17 | 91 | 9.7 | 19.3 | 0.00 | 0.23 | 0.00 | 59 | 1010.6 |
| 20260507153006 | 17 | 89 | 9.7 | 16.1 | 0.00 | 0.23 | 0.00 | 59 | 1010.6 |
| 20260507152006 | 17 | 70 | 9.7 | 16.1 | 0.00 | 0.23 | 0.00 | 60 | 1010.8 |
| 20260507151506 | 17 | 82 | 9.7 | 14.5 | 0.00 | 0.23 | 0.00 | 59 | 1010.7 |
| 20260507151007 | 17 | 96 | 9.7 | 20.9 | 0.00 | 0.23 | 0.00 | 60 | 1010.8 |
| 20260507150506 | 17 | 78 | 12.9 | 20.9 | 0.00 | 0.23 | 0.00 | 58 | 1010.9 |
| 20260507150006 | 17 | 75 | 9.7 | 16.1 | 0.00 | 0.23 | 0.00 | 60 | 1011.0 |
| 20260507145505 | 17 | 107 | 8.0 | 12.9 | 0.00 | 0.23 | 0.00 | 59 | 1011.0 |
| 20260507145006 | 17 | 121 | 8.0 | 14.5 | 0.00 | 0.23 | 0.00 | 57 | 1011.1 |
| 20260507144506 | 17 | 79 | 9.7 | 14.5 | 0.00 | 0.23 | 0.00 | 56 | 1011.0 |
| 20260507144008 | 17 | 80 | 11.3 | 14.5 | 0.00 | 0.23 | 0.00 | 56 | 1011.1 |
| 20260507143506 | 17 | 73 | 6.4 | 12.9 | 0.00 | 0.23 | 0.00 | 58 | 1011.1 |
| 20260507143011 | 17 | 74 | 8.0 | 16.1 | 0.00 | 0.23 | 0.00 | 59 | 1011.1 |
| 20260507142506 | 17 | 76 | 9.7 | 16.1 | 0.00 | 0.23 | 0.00 | 59 | 1011.1 |
| 20260507141505 | 17 | 82 | 4.8 | 9.7 | 0.00 | 0.23 | 0.00 | 58 | 1011.2 |
| 20260507141007 | 17 | 115 | 9.7 | 22.5 | 0.00 | 0.23 | 0.00 | 57 | 1011.3 |
| 20260507140505 | 17 | 59 | 6.4 | 14.5 | 0.00 | 0.23 | 0.00 | 57 | 1011.2 |
| 20260507140006 | 17 | 98 | 6.4 | 14.5 | 0.00 | 0.23 | 0.00 | 58 | 1011.2 |
| 20260507135505 | 17 | 69 | 9.7 | 20.9 | 0.00 | 0.23 | 0.00 | 59 | 1011.3 |
| 20260507135005 | 17 | 71 | 9.7 | 20.9 | 0.00 | 0.23 | 0.00 | 59 | 1011.3 |
| 20260507134505 | 17 | 66 | 11.3 | 20.9 | 0.00 | 0.23 | 0.00 | 60 | 1011.4 |
| 20260507134006 | 17 | 48 | 6.4 | 14.5 | 0.00 | 0.23 | 0.00 | 59 | 1011.5 |
| 20260507133006 | 18 | 49 | 3.2 | 14.5 | 0.00 | 0.23 | 0.00 | 58 | 1011.5 |
| 20260507132505 | 18 | 62 | 3.2 | 9.7 | 0.00 | 0.23 | 0.00 | 61 | 1011.5 |
| 20260507131505 | 17 | 43 | 8.0 | 16.1 | 0.00 | 0.23 | 0.00 | 60 | 1011.7 |
| 20260507131006 | 17 | 74 | 8.0 | 11.3 | 0.00 | 0.23 | 0.00 | 61 | 1011.6 |
| 20260507130506 | 17 | 89 | 4.8 | 12.9 | 0.00 | 0.23 | 0.00 | 59 | 1011.7 |
| 20260507125505 | 17 | 59 | 6.4 | 12.9 | 0.00 | 0.23 | 0.00 | 61 | 1011.8 |
| 20260507125005 | 17 | 76 | 4.8 | 14.5 | 0.00 | 0.23 | 0.00 | 60 | 1011.8 |
| 20260507124504 | 17 | 80 | 11.3 | 19.3 | 0.00 | 0.23 | 0.00 | 61 | 1011.9 |
| 20260507123505 | 17 | 111 | 4.8 | 14.5 | 0.00 | 0.23 | 0.00 | 60 | 1011.9 |
| 20260507123005 | 17 | 79 | 9.7 | 19.3 | 0.00 | 0.23 | 0.00 | 58 | 1011.8 |
| 20260507122505 | 17 | 85 | 8.0 | 11.3 | 0.00 | 0.23 | 0.00 | 59 | 1011.9 |
| 20260507122005 | 17 | 63 | 3.2 | 12.9 | 0.00 | 0.23 | 0.00 | 61 | 1012.0 |
| 20260507121505 | 17 | 54 | 3.2 | 11.3 | 0.00 | 0.23 | 0.00 | 60 | 1012.2 |
| 20260507121005 | 16 | 59 | 6.4 | 14.5 | 0.00 | 0.23 | 0.00 | 62 | 1012.1 |
| 20260507120504 | 16 | 71 | 9.7 | 12.9 | 0.00 | 0.23 | 0.00 | 61 | 1012.2 |
| 20260507115504 | 17 | 64 | 4.8 | 12.9 | 0.00 | 0.23 | 0.00 | 61 | 1012.0 |
| 20260507115005 | 17 | 58 | 4.8 | 9.7 | 0.00 | 0.23 | 0.00 | 60 | 1012.1 |
| 20260507113505 | 16 | 152 | 6.4 | 16.1 | 0.00 | 0.23 | 0.00 | 60 | 1012.3 |
| 20260507112505 | 16 | 138 | 9.7 | 14.5 | 0.00 | 0.23 | 0.00 | 58 | 1012.2 |
| 20260507112005 | 17 | 95 | 3.2 | 19.3 | 0.00 | 0.23 | 0.00 | 61 | 1012.3 |
| 20260507111506 | 16 | 130 | 14.5 | 19.3 | 0.00 | 0.23 | 0.00 | 61 | 1012.3 |
| 20260507111005 | 16 | 192 | 4.8 | 19.3 | 0.00 | 0.23 | 0.00 | 62 | 1012.3 |
| 20260507110504 | 16 | 130 | 11.3 | 20.9 | 0.00 | 0.23 | 0.00 | 60 | 1012.6 |
| 20260507110005 | 17 | 138 | 6.4 | 19.3 | 0.00 | 0.23 | 0.00 | 58 | 1012.5 |
| 20260507105505 | 17 | 8 | 4.8 | 14.5 | 0.00 | 0.23 | 0.00 | 59 | 1012.5 |
| 20260507105005 | 16 | 119 | 6.4 | 20.9 | 0.00 | 0.23 | 0.00 | 62 | 1012.7 |
| 20260507104005 | 17 | 93 | 9.7 | 16.1 | 0.00 | 0.23 | 0.00 | 60 | 1012.6 |
| 20260507103505 | 17 | 18 | 4.8 | 8.0 | 0.00 | 0.23 | 0.00 | 60 | 1012.7 |
| 20260507103005 | 17 | 140 | 3.2 | 9.7 | 0.00 | 0.23 | 0.00 | 63 | 1012.5 |
| 20260507102505 | 16 | 64 | 4.8 | 16.1 | 0.00 | 0.23 | 0.00 | 61 | 1012.9 |
| 20260507102007 | 16 | 157 | 6.4 | 16.1 | 0.00 | 0.23 | 0.00 | 63 | 1012.8 |
| 20260507101507 | 16 | 157 | 6.4 | 19.3 | 0.00 | 0.23 | 0.00 | 63 | 1012.8 |
| 20260507100505 | 15 | 67 | 8.0 | 19.3 | 0.00 | 0.23 | 0.00 | 63 | 1012.9 |
| 20260507100005 | 15 | 126 | 12.9 | 19.3 | 0.00 | 0.23 | 0.00 | 65 | 1013.0 |
| 20260507095504 | 15 | 90 | 8.0 | 20.9 | 0.00 | 0.23 | 0.00 | 64 | 1012.8 |
| 20260507094505 | 15 | 104 | 14.5 | 20.9 | 0.00 | 0.23 | 0.00 | 65 | 1013.0 |
| 20260507093505 | 15 | 89 | 9.7 | 19.3 | 0.00 | 0.23 | 0.00 | 69 | 1012.7 |
| 20260507093006 | 15 | 77 | 9.7 | 20.9 | 0.00 | 0.23 | 0.00 | 69 | 1012.7 |
| 20260507092504 | 15 | 88 | 9.7 | 16.1 | 0.00 | 0.23 | 0.00 | 68 | 1012.8 |
| 20260507092005 | 15 | 80 | 4.8 | 16.1 | 0.00 | 0.23 | 0.00 | 69 | 1012.6 |
| 20260507091505 | 15 | 75 | 8.0 | 16.1 | 0.00 | 0.23 | 0.00 | 69 | 1013.0 |
| 20260507090504 | 14 | 92 | 11.3 | 19.3 | 0.00 | 0.23 | 0.00 | 70 | 1012.7 |
| 20260507090005 | 14 | 93 | 11.3 | 16.1 | 0.00 | 0.23 | 0.00 | 71 | 1012.8 |
| 20260507084505 | 14 | 71 | 11.3 | 16.1 | 0.00 | 0.25 | 0.00 | 72 | 1012.6 |
| 20260507084005 | 14 | 118 | 6.4 | 12.9 | 0.00 | 0.25 | 0.00 | 72 | 1012.6 |
| 20260507083505 | 13 | 110 | 14.5 | 24.1 | 0.00 | 0.25 | 0.00 | 71 | 1012.7 |
| 20260507083005 | 13 | 103 | 9.7 | 16.1 | 0.00 | 0.25 | 0.00 | 72 | 1012.6 |
| 20260507082504 | 13 | 81 | 14.5 | 22.5 | 0.00 | 0.25 | 0.00 | 71 | 1012.8 |
| 20260507082006 | 13 | 83 | 11.3 | 16.1 | 0.00 | 0.25 | 0.00 | 71 | 1012.8 |
| 20260507081505 | 13 | 81 | 11.3 | 16.1 | 0.00 | 0.28 | 0.00 | 72 | 1012.9 |
| 20260507081006 | 13 | 70 | 8.0 | 12.9 | 0.00 | 0.28 | 0.00 | 74 | 1012.8 |
| 20260507080006 | 12 | 109 | 8.0 | 14.5 | 0.00 | 0.28 | 0.00 | 76 | 1012.9 |
| 20260507075505 | 12 | 95 | 9.7 | 16.1 | 0.00 | 0.28 | 0.00 | 76 | 1012.7 |
| 20260507075005 | 12 | 94 | 8.0 | 16.1 | 0.00 | 0.30 | 0.00 | 77 | 1012.7 |
| 20260507074505 | 12 | 96 | 9.7 | 16.1 | 0.00 | 0.30 | 0.00 | 78 | 1012.8 |
| 20260507074006 | 12 | 103 | 9.7 | 14.5 | 0.00 | 0.33 | 0.00 | 77 | 1012.9 |
| 20260507073504 | 12 | 115 | 6.4 | 16.1 | 0.00 | 0.33 | 0.00 | 79 | 1012.7 |
| 20260507072505 | 11 | 82 | 11.3 | 14.5 | 0.00 | 0.33 | 0.00 | 81 | 1012.6 |
| 20260507072006 | 11 | 83 | 11.3 | 19.3 | 0.00 | 0.33 | 0.00 | 81 | 1012.6 |
| 20260507071505 | 11 | 91 | 6.4 | 12.9 | 0.00 | 0.33 | 0.00 | 83 | 1012.5 |
| 20260507071005 | 11 | 64 | 8.0 | 16.1 | 0.00 | 0.33 | 0.00 | 83 | 1012.6 |
| 20260507070504 | 11 | 107 | 8.0 | 12.9 | 0.00 | 0.33 | 0.00 | 84 | 1012.7 |
| 20260507070010 | 11 | 93 | 8.0 | 14.5 | 0.00 | 0.33 | 0.00 | 85 | 1012.6 |
| 20260507065505 | 11 | 83 | 9.7 | 14.5 | 0.00 | 0.36 | 0.00 | 86 | 1012.4 |
| 20260507065006 | 10 | 70 | 4.8 | 12.9 | 0.00 | 0.36 | 0.00 | 88 | 1012.5 |
| 20260507064505 | 10 | 87 | 4.8 | 8.0 | 0.00 | 0.36 | 0.00 | 89 | 1012.5 |
| 20260507064005 | 10 | 108 | 8.0 | 11.3 | 0.00 | 0.38 | 0.00 | 89 | 1012.6 |
| 20260507063504 | 10 | 83 | 4.8 | 11.3 | 0.00 | 0.38 | 0.00 | 91 | 1012.4 |
| 20260507062504 | 9 | 80 | 8.0 | 11.3 | 0.00 | 0.38 | 0.00 | 92 | 1012.5 |
| 20260507062005 | 9 | 73 | 8.0 | 14.5 | 0.00 | 0.38 | 0.00 | 92 | 1012.4 |
| 20260507061505 | 9 | 72 | 4.8 | 12.9 | 0.00 | 0.41 | 0.00 | 93 | 1012.5 |
| 20260507061005 | 9 | 78 | 4.8 | 9.7 | 0.00 | 0.41 | 0.00 | 93 | 1012.3 |
| 20260507060505 | 9 | 66 | 4.8 | 8.0 | 0.00 | 0.41 | 0.00 | 94 | 1012.5 |
| 20260507055504 | 9 | 68 | 3.2 | 8.0 | 0.00 | 0.41 | 0.00 | 94 | 1012.6 |
| 20260507054505 | 9 | 24 | 0.0 | 4.8 | 0.00 | 0.43 | 0.00 | 94 | 1012.5 |
| 20260507054005 | 9 | 77 | 4.8 | 9.7 | 0.00 | 0.43 | 0.00 | 94 | 1012.1 |
| 20260507053505 | 8 | 80 | 4.8 | 8.0 | 0.00 | 0.43 | 0.00 | 94 | 1012.3 |
| 20260507053005 | 8 | 80 | 3.2 | 8.0 | 0.00 | 0.46 | 0.00 | 94 | 1012.3 |
| 20260507052506 | 8 | 67 | 4.8 | 8.0 | 0.00 | 0.46 | 0.00 | 94 | 1012.2 |
| 20260507052006 | 8 | 74 | 3.2 | 11.3 | 0.00 | 0.48 | 0.00 | 95 | 1012.0 |
| 20260507051504 | 8 | 82 | 4.8 | 11.3 | 0.00 | 0.48 | 0.00 | 95 | 1012.1 |
| 20260507051005 | 8 | 81 | 4.8 | 9.7 | 0.00 | 0.48 | 0.00 | 95 | 1012.0 |
| 20260507050005 | 8 | 71 | 6.4 | 11.3 | 0.00 | 0.48 | 0.00 | 95 | 1012.1 |
| 20260507045006 | 8 | 83 | 6.4 | 11.3 | 0.00 | 0.48 | 0.00 | 95 | 1012.1 |
| 20260507044505 | 8 | 83 | 6.4 | 11.3 | 0.00 | 0.48 | 0.00 | 95 | 1012.1 |
| 20260507044005 | 8 | 75 | 3.2 | 9.7 | 0.00 | 0.48 | 0.00 | 95 | 1012.0 |
| 20260507043505 | 8 | 23 | 1.6 | 8.0 | 0.00 | 0.48 | 0.00 | 95 | 1012.0 |
| 20260507043005 | 8 | 54 | 1.6 | 8.0 | 0.00 | 0.48 | 0.00 | 95 | 1011.7 |
| 20260507042504 | 8 | 59 | 3.2 | 11.3 | 0.00 | 0.48 | 0.00 | 95 | 1011.8 |
| 20260507042005 | 8 | 75 | 4.8 | 12.9 | 0.00 | 0.48 | 0.00 | 95 | 1011.5 |
| 20260507041005 | 8 | 78 | 8.0 | 12.9 | 0.00 | 0.48 | 0.00 | 95 | 1011.6 |
| 20260507040505 | 8 | 75 | 4.8 | 9.7 | 0.00 | 0.48 | 0.00 | 95 | 1011.9 |
| 20260507040005 | 8 | 64 | 3.2 | 11.3 | 0.00 | 0.48 | 0.00 | 94 | 1011.7 |
| 20260507035505 | 8 | 73 | 8.0 | 14.5 | 0.00 | 0.48 | 0.00 | 94 | 1011.7 |
| 20260507034005 | 8 | 72 | 8.0 | 12.9 | 0.00 | 0.48 | 0.00 | 94 | 1011.8 |
| 20260507033505 | 8 | 66 | 3.2 | 11.3 | 0.00 | 0.48 | 0.00 | 93 | 1011.7 |
| 20260507033005 | 8 | 62 | 8.0 | 14.5 | 0.00 | 0.48 | 0.00 | 93 | 1011.8 |
| 20260507032505 | 8 | 72 | 8.0 | 12.9 | 0.00 | 0.48 | 0.00 | 93 | 1011.7 |
| 20260507032005 | 8 | 80 | 8.0 | 12.9 | 0.00 | 0.48 | 0.00 | 93 | 1011.5 |
| 20260507031504 | 8 | 81 | 8.0 | 12.9 | 0.00 | 0.48 | 0.00 | 94 | 1011.7 |
| 20260507031005 | 8 | 81 | 4.8 | 9.7 | 0.00 | 0.48 | 0.00 | 94 | 1011.6 |
| 20260507030005 | 8 | 102 | 0.0 | 4.8 | 0.00 | 0.48 | 0.00 | 93 | 1011.6 |
| 20260507025504 | 8 | 7 | 1.6 | 8.0 | 0.00 | 0.48 | 0.00 | 93 | 1011.7 |
| 20260507025005 | 8 | 77 | 3.2 | 9.7 | 0.00 | 0.48 | 0.00 | 92 | 1011.6 |
| 20260507024505 | 8 | 54 | 3.2 | 8.0 | 0.00 | 0.48 | 0.00 | 92 | 1011.5 |
| 20260507024005 | 8 | 58 | 1.6 | 8.0 | 0.00 | 0.48 | 0.00 | 91 | 1011.5 |
| 20260507023505 | 8 | 60 | 3.2 | 11.3 | 0.00 | 0.48 | 0.00 | 91 | 1011.4 |
| 20260507023005 | 9 | 65 | 6.4 | 11.3 | 0.00 | 0.48 | 0.00 | 91 | 1011.5 |
| 20260507022504 | 9 | 69 | 4.8 | 11.3 | 0.00 | 0.48 | 0.00 | 90 | 1011.3 |
| 20260507022006 | 9 | 63 | 1.6 | 9.7 | 0.00 | 0.48 | 0.00 | 90 | 1011.5 |
| 20260507021505 | 9 | 27 | 1.6 | 9.7 | 0.00 | 0.48 | 0.00 | 89 | 1011.6 |
| 20260507021005 | 10 | 52 | 3.2 | 11.3 | 0.00 | 0.48 | 0.00 | 89 | 1011.4 |
| 20260507020005 | 10 | 72 | 8.0 | 14.5 | 0.00 | 0.48 | 0.00 | 88 | 1011.5 |
| 20260507015505 | 10 | 63 | 6.4 | 11.3 | 0.00 | 0.48 | 0.00 | 88 | 1011.5 |
| 20260507015005 | 10 | 57 | 4.8 | 11.3 | 0.00 | 0.48 | 0.00 | 88 | 1011.5 |
| 20260507014505 | 10 | 68 | 3.2 | 11.3 | 0.00 | 0.48 | 0.00 | 88 | 1011.4 |
| 20260507013505 | 10 | 70 | 3.2 | 11.3 | 0.00 | 0.48 | 0.00 | 89 | 1011.6 |
| 20260507013005 | 10 | 53 | 3.2 | 9.7 | 0.00 | 0.48 | 0.00 | 89 | 1011.6 |
| 20260507012504 | 10 | 53 | 1.6 | 9.7 | 0.00 | 0.48 | 0.00 | 88 | 1011.4 |
| 20260507012005 | 10 | 59 | 3.2 | 11.3 | 0.00 | 0.48 | 0.00 | 88 | 1011.5 |
| 20260507011504 | 10 | 50 | 1.6 | 8.0 | 0.00 | 0.48 | 0.00 | 88 | 1011.4 |
| 20260507011005 | 10 | 51 | 3.2 | 9.7 | 0.00 | 0.48 | 0.00 | 88 | 1011.5 |
| 20260507010505 | 10 | 57 | 3.2 | 11.3 | 0.00 | 0.48 | 0.00 | 88 | 1011.4 |
| 20260507010005 | 10 | 52 | 3.2 | 8.0 | 0.00 | 0.48 | 0.00 | 88 | 1011.2 |
| 20260507005505 | 11 | 82 | 3.2 | 9.7 | 0.00 | 0.48 | 0.00 | 88 | 1011.5 |
| 20260507005005 | 11 | 55 | 3.2 | 8.0 | 0.00 | 0.48 | 0.00 | 88 | 1011.4 |
| 20260507004505 | 11 | 101 | 3.2 | 12.9 | 0.00 | 0.48 | 0.00 | 87 | 1011.5 |
| 20260507004005 | 11 | 78 | 8.0 | 14.5 | 0.00 | 0.48 | 0.00 | 87 | 1011.4 |
| 20260507003005 | 11 | 71 | 6.4 | 11.3 | 0.00 | 0.48 | 0.00 | 89 | 1011.5 |
| 20260507002504 | 11 | 61 | 4.8 | 11.3 | 0.00 | 0.48 | 0.00 | 89 | 1011.5 |
| 20260507002005 | 11 | 76 | 4.8 | 11.3 | 0.00 | 0.48 | 0.00 | 89 | 1011.6 |
| 20260507001505 | 11 | 71 | 6.4 | 11.3 | 0.00 | 0.48 | 0.00 | 90 | 1011.7 |
| 20260507001004 | 11 | 64 | 4.8 | 9.7 | 0.00 | 0.48 | 0.00 | 93 | 1011.6 |
| 20260507000004 | 11 | 27 | 1.6 | 8.0 | 0.00 | 0.48 | 0.00 | 96 | 1011.6 |
| 20260506235504 | 11 | 21 | 3.2 | 4.8 | 0.00 | 0.48 | 0.00 | 96 | 1011.6 |
| 20260506235005 | 11 | 16 | 3.2 | 8.0 | 0.00 | 0.48 | 0.00 | 96 | 1011.5 |
| 20260506234505 | 11 | 11 | 3.2 | 4.8 | 0.00 | 0.48 | 0.00 | 96 | 1011.5 |
| 20260506234004 | 11 | 14 | 3.2 | 4.8 | 0.00 | 0.48 | 0.00 | 97 | 1011.6 |
| 20260506233505 | 11 | 9 | 3.2 | 4.8 | 0.00 | 0.48 | 0.00 | 97 | 1011.6 |
| 20260506233006 | 11 | 24 | 1.6 | 4.8 | 0.00 | 0.48 | 0.00 | 97 | 1011.5 |
| 20260506232004 | 11 | 17 | 1.6 | 3.2 | 0.00 | 0.48 | 0.00 | 97 | 1011.7 |
| 20260506231504 | 11 | 65 | 0.0 | 1.6 | 0.00 | 0.48 | 0.00 | 97 | 1011.3 |
| 20260506231005 | 11 | 27 | 0.0 | 0.0 | 0.00 | 0.48 | 0.00 | 96 | 1011.4 |
| 20260506230504 | 11 | 27 | 0.0 | 1.6 | 0.00 | 0.48 | 0.00 | 96 | 1011.5 |
| 20260506230004 | 11 | 39 | 0.0 | 1.6 | 0.23 | 0.48 | 0.23 | 96 | 1011.5 |
| 20260506225005 | 11 | 108 | 1.6 | 3.2 | 0.00 | 0.48 | 0.23 | 96 | 1011.5 |
| 20260506224504 | 11 | 158 | 1.6 | 3.2 | 0.00 | 0.48 | 0.23 | 96 | 1011.4 |
| 20260506224004 | 11 | 39 | 0.0 | 1.6 | 0.00 | 0.48 | 0.23 | 96 | 1011.4 |
| 20260506223505 | 11 | 311 | 0.0 | 0.0 | 0.00 | 0.48 | 0.23 | 96 | 1011.5 |
| 20260506223005 | 11 | 311 | 0.0 | 0.0 | 0.00 | 2.79 | 0.23 | 96 | 1011.5 |
| 20260506222505 | 11 | 311 | 0.0 | 0.0 | 0.00 | 2.79 | 0.23 | 96 | 1011.5 |
| 20260506222005 | 11 | 311 | 0.0 | 1.6 | 0.00 | 2.79 | 0.23 | 96 | 1011.4 |
| 20260506221504 | 11 | 356 | 0.0 | 1.6 | 0.00 | 2.79 | 0.23 | 96 | 1011.4 |
| 20260506221004 | 11 | 336 | 0.0 | 1.6 | 0.00 | 2.79 | 0.23 | 95 | 1011.5 |
| 20260506220505 | 11 | 24 | 0.0 | 1.6 | 0.00 | 2.79 | 0.23 | 95 | 1011.3 |
| 20260506220004 | 11 | 91 | 0.0 | 1.6 | 0.00 | 2.57 | 0.00 | 95 | 1011.4 |
| 20260506215005 | 11 | 39 | 0.0 | 1.6 | 0.00 | 2.57 | 0.23 | 95 | 1011.4 |
| 20260506214004 | 11 | 316 | 0.0 | 1.6 | 0.00 | 2.57 | 0.23 | 94 | 1011.2 |
| 20260506213504 | 11 | 329 | 0.0 | 0.0 | 0.00 | 2.57 | 0.23 | 94 | 1011.4 |
| 20260506213005 | 11 | 329 | 0.0 | 1.6 | 0.00 | 2.57 | 0.23 | 94 | 1011.3 |
| 20260506212504 | 11 | 314 | 1.6 | 3.2 | 0.00 | 2.57 | 0.23 | 94 | 1011.2 |
| 20260506212005 | 11 | 314 | 1.6 | 3.2 | 0.00 | 2.57 | 0.23 | 93 | 1011.1 |
| 20260506211504 | 11 | 158 | 0.0 | 0.0 | 0.00 | 2.57 | 0.23 | 93 | 1011.1 |
| 20260506211005 | 11 | 158 | 0.0 | 0.0 | 0.00 | 2.57 | 0.23 | 93 | 1011.0 |
| 20260506210504 | 11 | 158 | 0.0 | 1.6 | 0.00 | 2.57 | 0.23 | 93 | 1011.1 |
| 20260506210005 | 11 | 57 | 0.0 | 1.6 | 0.00 | 2.59 | 0.23 | 92 | 1011.2 |
| 20260506205005 | 11 | 106 | 0.0 | 1.6 | 0.00 | 2.62 | 0.23 | 92 | 1011.1 |
| 20260506204504 | 11 | 105 | 0.0 | 1.6 | 0.00 | 2.64 | 0.23 | 91 | 1011.2 |
| 20260506203504 | 12 | 342 | 0.0 | 1.6 | 0.00 | 2.67 | 0.23 | 91 | 1010.9 |
| 20260506203004 | 12 | 311 | 0.0 | 1.6 | 0.00 | 2.67 | 0.23 | 90 | 1011.0 |
| 20260506202505 | 12 | 316 | 1.6 | 3.2 | 0.00 | 2.67 | 0.23 | 90 | 1011.0 |
| 20260506202005 | 12 | 232 | 0.0 | 1.6 | 0.00 | 2.69 | 0.23 | 89 | 1010.9 |
| 20260506201505 | 12 | 2 | 0.0 | 0.0 | 0.00 | 2.69 | 0.23 | 89 | 1010.8 |
| 20260506201005 | 12 | 2 | 0.0 | 1.6 | 0.00 | 2.69 | 0.23 | 89 | 1010.7 |
| 20260506200506 | 12 | 356 | 0.0 | 1.6 | 0.00 | 2.69 | 0.23 | 89 | 1010.7 |
| 20260506200005 | 12 | 2 | 0.0 | 1.6 | 0.00 | 2.72 | 0.23 | 88 | 1010.7 |
| 20260506195505 | 12 | 70 | 0.0 | 4.8 | 0.00 | 2.72 | 0.23 | 88 | 1010.7 |
| 20260506195006 | 12 | 78 | 0.0 | 4.8 | 0.00 | 2.72 | 0.23 | 88 | 1010.6 |
| 20260506194505 | 12 | 73 | 3.2 | 4.8 | 0.00 | 2.77 | 0.23 | 87 | 1010.5 |
| 20260506194006 | 12 | 69 | 3.2 | 8.0 | 0.00 | 2.77 | 0.23 | 86 | 1010.5 |
| 20260506193505 | 12 | 66 | 3.2 | 4.8 | 0.00 | 2.82 | 0.23 | 86 | 1010.3 |
| 20260506193005 | 12 | 72 | 3.2 | 8.0 | 0.00 | 2.84 | 0.23 | 85 | 1010.4 |
| 20260506192005 | 12 | 61 | 1.6 | 8.0 | 0.00 | 2.92 | 0.23 | 84 | 1010.4 |
| 20260506191505 | 12 | 64 | 3.2 | 8.0 | 0.00 | 2.95 | 0.23 | 83 | 1010.2 |
| 20260506191006 | 12 | 63 | 3.2 | 9.7 | 0.00 | 2.97 | 0.23 | 82 | 1010.3 |
| 20260506190505 | 12 | 63 | 4.8 | 9.7 | 0.00 | 2.97 | 0.23 | 82 | 1010.1 |
| 20260506190006 | 12 | 65 | 8.0 | 9.7 | 0.00 | 2.97 | 0.23 | 81 | 1010.2 |
| 20260506185006 | 13 | 76 | 4.8 | 11.3 | 0.00 | 3.00 | 0.23 | 81 | 1010.1 |
| 20260506184506 | 13 | 67 | 6.4 | 11.3 | 0.00 | 3.07 | 0.23 | 80 | 1010.0 |
| 20260506184006 | 13 | 45 | 3.2 | 12.9 | 0.00 | 3.12 | 0.23 | 79 | 1010.0 |
| 20260506183505 | 13 | 51 | 4.8 | 11.3 | 0.00 | 3.17 | 0.23 | 78 | 1010.0 |
| 20260506183006 | 14 | 68 | 3.2 | 9.7 | 0.00 | 3.20 | 0.23 | 77 | 1010.0 |
| 20260506182505 | 14 | 19 | 0.0 | 3.2 | 0.00 | 3.20 | 0.23 | 75 | 1009.8 |
| 20260506182006 | 14 | 10 | 0.0 | 3.2 | 0.00 | 3.20 | 0.23 | 72 | 1009.9 |
| 20260506181505 | 14 | 10 | 0.0 | 3.2 | 0.00 | 3.20 | 0.23 | 72 | 1009.9 |
| 20260506180505 | 14 | 348 | 1.6 | 3.2 | 0.00 | 3.20 | 0.23 | 70 | 1009.8 |
| 20260506175505 | 14 | 4 | 0.0 | 3.2 | 0.00 | 3.20 | 0.23 | 70 | 1009.8 |
| 20260506175005 | 14 | 10 | 1.6 | 3.2 | 0.00 | 3.20 | 0.23 | 70 | 1009.7 |
| 20260506174505 | 14 | 11 | 1.6 | 3.2 | 0.00 | 3.20 | 0.23 | 70 | 1009.5 |